This is the latest recevied weather packets stored in our database for station/object OK1FET-15. If no packets are shown the sender has not sent any weather packets the latest 10 day(s).
| Time | Temp. | Humidity | Pressure | Rain* | Wind** | Luminosity | Snow |
|---|---|---|---|---|---|---|---|
| 1777881363 | 23.89° C | 40% | 1014 hPa | - | - | - | - |
| 1777881055 | 23.33° C | 43% | 1014 hPa | - | - | - | - |
| 1777880747 | 22.78° C | 44% | 1014.1 hPa | - | - | - | - |
| 1777880439 | 21.67° C | 44% | 1014.1 hPa | - | - | - | - |
| 1777880132 | 21.67° C | 45% | 1014 hPa | - | - | - | - |
| 1777879824 | 21.11° C | 47% | 1013.9 hPa | - | - | - | - |
| 1777879516 | 21.11° C | 49% | 1013.9 hPa | - | - | - | - |
| 1777879208 | 20.56° C | 51% | 1013.9 hPa | - | - | - | - |
| 1777878901 | 20° C | 51% | 1013.9 hPa | - | - | - | - |
| 1777878593 | 19.44° C | 54% | 1013.9 hPa | - | - | - | - |
| 1777878285 | 18.89° C | 50% | 1013.9 hPa | - | - | - | - |
| 1777877978 | 18.89° C | 56% | 1013.9 hPa | - | - | - | - |
| 1777877670 | 18.33° C | 58% | 1013.9 hPa | - | - | - | - |
| 1777877362 | 17.78° C | 58% | 1013.9 hPa | - | - | - | - |
| 1777877055 | 17.22° C | 62% | 1013.9 hPa | - | - | - | - |
| 1777876747 | 16.67° C | 67% | 1013.9 hPa | - | - | - | - |
| 1777876440 | 15.56° C | 68% | 1013.9 hPa | - | - | - | - |
| 1777876133 | 15° C | 67% | 1013.9 hPa | - | - | - | - |
| 1777875825 | 14.44° C | 70% | 1013.9 hPa | - | - | - | - |
| 1777875518 | 13.89° C | 71% | 1013.8 hPa | - | - | - | - |
| 1777875211 | 13.89° C | 72% | 1013.9 hPa | - | - | - | - |
| 1777874904 | 13.33° C | 73% | 1013.9 hPa | - | - | - | - |
| 1777874596 | 13.33° C | 73% | 1013.8 hPa | - | - | - | - |
| 1777874289 | 13.33° C | 74% | 1013.9 hPa | - | - | - | - |
| 1777873982 | 13.33° C | 74% | 1013.9 hPa | - | - | - | - |
* Rain since midnight (hover to see other rain measurements)
** Current wind speed in m/s (hover to see current wind gust speed)